DW7002 Weather Reports


Display with metric or nautical units.
time (UTC)temp
F
wind
direction
speed
MPH
gust
MPH
rain 1hr
in
rain 24hr
in
rain mn
in
humidity
%
barometer
mb
20260906193115 82 69 0.0 4.0 0.00 0.00 0.00 74 1014.7
20260906192129 82 95 0.0 2.0 0.00 0.00 0.00 76 1014.9
20260906191122 81 155 0.0 1.0 0.00 0.00 0.00 78 1014.9
20260906190116 80 130 0.0 0.0 0.00 0.00 0.00 80 1015.0
20260906185130 79 131 0.0 1.0 0.00 0.00 0.00 81 1015.4
20260906184124 79 132 0.0 1.0 0.00 0.00 0.00 82 1015.5
20260906183118 79 132 0.0 0.0 0.00 0.00 0.00 82 1015.5
20260906182115 78 132 0.0 1.0 0.00 0.00 0.00 83 1015.4
20260906181130 79 135 0.0 0.0 0.00 0.00 0.00 82 1015.6
20260906180123 79 136 0.0 0.0 0.00 0.00 0.00 81 1015.7
20260906175114 79 136 0.0 0.0 0.00 0.00 0.00 80 1016.0
20260906174131 79 136 0.0 0.0 0.00 0.00 0.00 80 1016.1
20260906173123 79 109 0.0 1.0 0.00 0.00 0.00 81 1016.0
20260906172115 79 91 0.0 0.0 0.00 0.00 0.00 82 1016.0
20260906171129 79 91 0.0 0.0 0.00 0.00 0.00 81 1016.0
20260906170146 79 92 0.0 0.0 0.00 0.00 0.00 81 1016.0
20260906165115 80 92 0.0 0.0 0.00 0.00 0.00 80 1016.1
20260906164128 80 92 0.0 0.0 0.00 0.00 0.00 80 1015.9
20260906163121 80 92 0.0 2.0 0.00 0.00 0.00 80 1016.1
20260906162119 79 119 0.0 1.0 0.00 0.00 0.00 81 1015.9
20260906161131 79 121 0.0 1.0 0.00 0.00 0.00 81 1016.1
20260906160124 79 144 0.0 2.0 0.00 0.00 0.00 81 1015.9
20260906155140 79 125 1.0 4.0 0.00 0.00 0.00 82 1016.0
20260906154132 78 109 0.0 2.0 0.00 0.00 0.00 84 1016.2
20260906153146 78 72 0.0 1.0 0.00 0.00 0.00 84 1016.3
20260906152138 77 72 0.0 0.0 0.00 0.00 0.00 86 1016.3
20260906151151 77 72 0.0 1.0 0.00 0.00 0.00 86 1016.3
20260906150122 77 74 0.0 1.0 0.00 0.00 0.00 86 1016.1
20260906145132 76 115 0.0 2.0 0.00 0.00 0.00 87 1016.1
20260906144125 76 108 0.0 1.0 0.00 0.00 0.00 87 1016.1
20260906143119 76 109 0.0 1.0 0.00 0.00 0.00 88 1016.0
20260906142117 76 128 0.0 0.0 0.00 0.00 0.00 87 1016.0
20260906141151 76 138 0.0 1.0 0.00 0.00 0.00 87 1016.0
20260906140124 76 80 0.0 1.0 0.00 0.00 0.00 88 1015.9
20260906135115 76 82 0.0 1.0 0.00 0.00 0.00 89 1016.1
20260906134133 75 86 0.0 1.0 0.00 0.00 0.00 92 1015.8
20260906133127 74 76 0.0 1.0 0.00 0.00 0.00 92 1015.8
20260906132120 74 76 0.0 1.0 0.00 0.00 0.00 92 1015.8
20260906131118 73 92 0.0 1.0 0.00 0.00 0.00 93 1015.9
20260906130152 73 95 0.0 2.0 0.00 0.00 0.00 93 1015.6
20260906125121 73 69 0.0 0.0 0.00 0.00 0.00 95 1015.7
20260906124116 73 71 0.0 0.0 0.00 0.00 0.00 95 1015.4
20260906123154 73 72 0.0 0.0 0.00 0.00 0.00 95 1015.5
20260906122126 72 75 0.0 0.0 0.00 0.00 0.00 95 1015.5
20260906121119 72 82 0.0 0.0 0.00 0.00 0.00 96 1015.4
20260906120133 72 81 0.0 1.0 0.00 0.00 0.00 96 1015.3
20260906115127 72 75 0.0 0.0 0.00 0.00 0.00 96 1015.2
20260906114140 72 84 0.0 0.0 0.00 0.00 0.00 96 1015.2
20260906113132 72 86 0.0 0.0 0.00 0.00 0.00 96 1015.2
20260906112125 72 86 0.0 0.0 0.00 0.00 0.00 96 1015.2
20260906111123 72 89 0.0 0.0 0.00 0.00 0.00 96 1015.0
20260906110116 72 89 0.0 0.0 0.00 0.00 0.00 96 1014.8
20260906105146 72 89 0.0 0.0 0.00 0.00 0.00 96 1014.7
20260906104140 72 89 0.0 0.0 0.00 0.00 0.00 96 1014.7
20260906103117 72 89 0.0 0.0 0.00 0.00 0.00 96 1014.7
20260906102131 72 89 0.0 0.0 0.00 0.00 0.00 96 1014.4
20260906101124 72 89 0.0 0.0 0.00 0.00 0.00 96 1014.1
20260906100120 72 89 0.0 0.0 0.00 0.00 0.00 96 1014.2
20260906095131 72 89 0.0 0.0 0.00 0.00 0.00 96 1014.1
20260906094126 72 89 0.0 0.0 0.00 0.00 0.00 96 1014.0
20260906093119 72 89 0.0 0.0 0.00 0.00 0.00 96 1013.9
20260906092116 72 89 0.0 0.0 0.00 0.00 0.00 96 1013.9
20260906091129 72 89 0.0 0.0 0.00 0.00 0.00 96 1013.8
20260906090121 72 89 0.0 0.0 0.00 0.00 0.00 97 1013.7
20260906085116 71 89 0.0 0.0 0.00 0.00 0.00 97 1013.6
20260906084129 71 89 0.0 0.0 0.00 0.00 0.00 96 1013.4
20260906083122 70 89 0.0 0.0 0.00 0.00 0.00 97 1013.1
20260906082135 70 89 0.0 0.0 0.00 0.00 0.00 96 1013.0
20260906081151 70 89 0.0 0.0 0.00 0.00 0.00 95 1013.0
20260906080144 70 89 0.0 0.0 0.00 0.00 0.00 95 1013.1
20260906075134 70 89 0.0 0.0 0.00 0.00 0.00 95 1013.1
20260906074125 70 89 0.0 0.0 0.00 0.00 0.00 95 1013.0
20260906073123 70 89 0.0 0.0 0.00 0.00 0.00 95 1013.0
20260906072117 70 89 0.0 0.0 0.00 0.00 0.00 95 1013.0
20260906071131 70 89 0.0 0.0 0.00 0.00 0.00 94 1013.0
20260906070125 70 89 0.0 0.0 0.00 0.00 0.00 94 1013.0
20260906065119 70 89 0.0 0.0 0.00 0.00 0.00 94 1013.2
20260906064132 70 89 0.0 0.0 0.00 0.00 0.00 94 1013.3
20260906063126 70 89 0.0 0.0 0.00 0.00 0.00 94 1013.4
20260906062144 70 90 0.0 0.0 0.00 0.00 0.00 94 1013.3
20260906061117 70 90 0.0 0.0 0.00 0.00 0.00 94 1013.4
20260906060131 70 90 0.0 0.0 0.00 0.00 0.00 94 1013.5
20260906055122 71 90 0.0 0.0 0.00 0.00 0.00 94 1013.5
20260906054119 71 90 0.0 0.0 0.00 0.00 0.00 94 1013.5
20260906053132 71 90 0.0 0.0 0.00 0.00 0.00 94 1013.7
20260906052125 71 90 0.0 0.0 0.00 0.00 0.00 94 1013.7
20260906051122 71 90 0.0 0.0 0.00 0.00 0.00 94 1013.8
20260906050135 71 90 0.0 0.0 0.00 0.00 0.00 94 1013.9
20260906045126 71 90 0.0 0.0 0.00 0.00 0.00 94 1014.1
20260906044119 71 90 0.0 0.0 0.00 0.00 0.00 94 1014.1
20260906043118 71 90 0.0 0.0 0.00 0.00 0.00 93 1014.3
20260906042131 71 90 0.0 0.0 0.00 0.00 0.00 93 1014.2
20260906041123 72 90 0.0 0.0 0.00 0.00 0.00 93 1014.2
20260906040138 72 90 0.0 0.0 0.00 0.00 0.00 93 1014.3
20260906035132 72 90 0.0 0.0 0.00 0.00 0.00 93 1014.3
20260906034125 72 90 0.0 0.0 0.00 0.00 0.00 93 1014.2
20260906033118 72 90 0.0 0.0 0.00 0.00 0.00 93 1014.3
20260906032117 72 90 0.0 0.0 0.00 0.00 0.00 93 1014.2
20260906031130 72 90 0.0 0.0 0.00 0.00 0.00 93 1014.3
20260906030124 72 90 0.0 0.0 0.00 0.00 0.00 93 1014.1
20260906025116 72 90 0.0 0.0 0.00 0.00 0.00 93 1014.3
20260906024133 72 90 0.0 0.0 0.00 0.00 0.00 93 1014.0
20260906023125 72 90 0.0 0.0 0.00 0.00 0.00 92 1014.0
20260906022119 73 90 0.0 0.0 0.00 0.00 0.00 92 1014.0
20260906021117 73 90 0.0 2.0 0.00 0.00 0.00 92 1014.0
20260906020130 73 285 0.0 0.0 0.00 0.00 0.00 91 1013.4
20260906015121 74 285 0.0 0.0 0.00 0.00 0.00 91 1013.3
20260906014114 74 285 0.0 0.0 0.00 0.00 0.00 91 1013.2
20260906013131 74 285 0.0 0.0 0.00 0.00 0.00 90 1013.4
20260906012146 74 285 0.0 0.0 0.00 0.00 0.00 91 1013.4
20260906011117 74 285 0.0 0.0 0.00 0.00 0.00 90 1013.1
20260906010129 74 285 0.0 0.0 0.00 0.00 0.00 90 1013.0
20260906005124 75 285 0.0 1.0 0.00 0.00 0.00 89 1013.1
20260906004117 75 285 0.0 0.0 0.00 0.00 0.00 90 1013.0
20260906003130 75 285 0.0 0.0 0.00 0.00 0.00 89 1013.0
20260906002144 75 285 0.0 0.0 0.00 0.00 0.00 89 1012.9
20260906001119 76 285 0.0 0.0 0.00 0.00 0.00 88 1012.8
20260906000152 76 285 0.0 0.0 0.00 0.00 0.00 87 1012.8
20260905235121 76 285 0.0 0.0 0.00 0.00 0.00 87 1012.6
20260905234118 77 285 0.0 1.0 0.00 0.00 0.00 86 1012.5
20260905233133 77 285 0.0 1.0 0.00 0.00 0.00 86 1012.4
20260905232127 77 285 0.0 1.0 0.00 0.00 0.00 85 1012.5
20260905231121 78 286 0.0 1.0 0.00 0.00 0.00 84 1012.5
20260905230117 78 286 0.0 2.0 0.00 0.10 0.00 84 1012.3
20260905225129 78 283 0.0 0.0 0.00 0.10 0.00 85 1012.2
20260905224121 78 283 0.0 1.0 0.00 0.10 0.00 84 1012.2
20260905223154 78 283 0.0 1.0 0.00 0.10 0.00 84 1012.4
20260905222131 78 285 0.0 1.0 0.00 0.10 0.00 84 1012.4
20260905221125 79 285 0.0 1.0 0.00 0.10 0.00 85 1012.5
20260905220117 79 279 1.0 2.0 0.00 0.10 0.00 85 1012.6
20260905215133 79 260 0.0 1.0 0.00 0.10 0.00 86 1012.6
20260905214127 79 278 0.0 4.0 0.00 0.10 0.00 86 1012.8
20260905213120 79 254 1.0 2.0 0.00 0.10 0.00 87 1012.9
20260905212132 77 246 0.0 1.0 0.00 0.10 0.00 91 1013.1
20260905211130 76 234 0.0 1.0 0.00 0.10 0.00 93 1013.2
20260905210125 75 232 0.0 0.0 0.00 0.10 0.00 92 1012.8
20260905205116 75 226 0.0 0.0 0.00 0.10 0.00 93 1012.7
20260905204134 75 226 0.0 0.0 0.00 0.10 0.00 92 1012.6
20260905203125 74 226 0.0 0.0 0.00 0.10 0.00 92 1012.9
20260905202119 74 227 0.0 1.0 0.00 0.10 0.00 92 1012.6
20260905201133 74 212 0.0 1.0 0.00 0.10 0.00 91 1013.0
20260905200130 74 210 0.0 1.0 0.00 0.10 0.00 90 1013.0
20260905195120 75 163 0.0 0.0 0.00 0.10 0.00 89 1012.9
20260905194153 76 161 0.0 1.0 0.00 0.10 0.00 86 1012.6